H1 CPF 2 NER 2022 10 31 9 304 01 glonass127 H2 1106403 9127 37869 2022 10 31 0 0 0 2022 11 3 23 45 0 900 1 1 0 0 0 1 H9 10 0 59883 0.00000 0 11664164.368 12347673.867 -18994857.835 10 0 59883 900.00000 0 12267480.075 14496517.280 -16999685.335 10 0 59883 1800.00000 0 12946865.937 16340825.650 -14673533.130 10 0 59883 2700.00000 0 13649888.251 17846247.976 -12061887.493 10 0 59883 3600.00000 0 14320078.996 18990791.348 -9215730.338 10 0 59883 4500.00000 0 14899459.669 19765502.777 -6190529.555 10 0 59883 5400.00000 0 15331138.167 20174613.465 -3045146.946 10 0 59883 6300.00000 0 15561868.406 20235142.747 159313.892 10 0 59883 7200.00000 0 15544464.681 19975981.527 3360696.512 10 0 59883 8100.00000 0 15239969.478 19436496.708 6496993.959 10 0 59883 9000.00000 0 14619484.422 18664717.670 9507541.382 10 0 59883 9900.00000 0 13665588.601 17715182.714 12334176.302 10 0 59883 10800.00000 0 12373286.047 16646536.836 14922345.293 10 0 59883 11700.00000 0 10750443.780 15518981.676 17222137.201 10 0 59883 12600.00000 0 8817702.935 14391683.833 19189224.781 10 0 59883 13500.00000 0 6607866.874 13320248.722 20785698.672 10 0 59883 14400.00000 0 4164791.320 12354363.822 21980779.770 10 0 59883 15300.00000 0 1541821.491 11535707.857 22751398.105 10 0 59883 16200.00000 0 -1200160.752 10896211.295 23082628.748 10 0 59883 17100.00000 0 -3995001.321 10456739.210 22967977.407 10 0 59883 18000.00000 0 -6773758.827 10226250.493 22409510.659 10 0 59883 18900.00000 0 -9467310.215 10201468.185 21417828.111 10 0 59883 19800.00000 0 -12008972.081 10367075.145 20011876.062 10 0 59883 20700.00000 0 -14337031.524 10696428.039 18218604.732 10 0 59883 21600.00000 0 -16397083.502 11152761.483 16072473.612 10 0 59883 22500.00000 0 -18144078.759 11690833.929 13614812.059 10 0 59883 23400.00000 0 -19543997.366 12258948.318 10893045.085 10 0 59883 24300.00000 0 -20575077.647 12801264.438 7959796.910 10 0 59883 25200.00000 0 -21228547.980 13260306.947 4871887.612 10 0 59883 26100.00000 0 -21508829.151 13579563.921 1689240.878 10 0 59883 27000.00000 0 -21433196.939 13706065.916 -1526276.787 10 0 59883 27900.00000 0 -21030917.331 13592835.335 -4712063.026 10 0 59883 28800.00000 0 -20341889.283 13201100.497 -7806008.620 10 0 59883 29700.00000 0 -19414851.362 12502177.999 -10747723.405 10 0 59883 30600.00000 0 -18305227.677 11478940.613 -13479733.584 10 0 59883 31500.00000 0 -17072704.536 10126805.393 -15948624.994 10 0 59883 32400.00000 0 -15778641.287 8454197.099 -18106107.968 10 0 59883 33300.00000 0 -14483426.292 6482464.633 -19909980.993 10 0 59883 34200.00000 0 -13243891.606 4245251.906 -21324972.469 10 0 59883 35100.00000 0 -12110897.386 1787348.173 -22323442.735 10 0 59883 36000.00000 0 -11127189.651 -836934.599 -22885931.684 10 0 59883 36900.00000 0 -10325623.003 -3565789.193 -23001540.683 10 0 59883 37800.00000 0 -9727823.873 -6332259.992 -22668141.350 10 0 59883 38700.00000 0 -9343350.557 -9066810.201 -21892407.505 10 0 59883 39600.00000 0 -9169384.606 -11700000.992 -20689670.442 10 0 59883 40500.00000 0 -9190965.125 -14165169.825 -19083601.483 10 0 59883 41400.00000 0 -9381753.998 -16400995.535 -17105729.302 10 0 59883 42300.00000 0 -9705297.391 -18353842.909 -14794803.010 10 0 59883 43200.00000 0 -10116727.698 -19979789.477 -12196014.993 10 0 59883 44100.00000 0 -10564831.574 -21246251.050 -9360100.236 10 0 59883 45000.00000 0 -10994394.501 -22133139.940 -6342331.275 10 0 59883 45900.00000 0 -11348721.052 -22633509.912 -3201429.700 10 0 59883 46800.00000 0 -11572223.215 -22753663.773 1583.531 10 0 59883 47700.00000 0 -11612966.914 -22512722.107 3204575.741 10 0 59883 48600.00000 0 -11425069.332 -21941674.274 6345504.758 10 0 59883 49500.00000 0 -10970846.570 -21081954.061 9363612.513 10 0 59883 50400.00000 0 -10222622.233 -19983601.804 12200587.403 10 0 59883 51300.00000 0 -9164122.118 -18703091.327 14801674.049 10 0 59883 52200.00000 0 -7791397.625 -17300913.216 17116710.561 10 0 59883 53100.00000 0 -6113240.213 -15839015.236 19101075.038 10 0 59883 54000.00000 0 -4151069.974 -14378205.816 20716525.190 10 0 59883 54900.00000 0 -1938302.807 -12975627.362 21931916.971 10 0 59883 55800.00000 0 480778.305 -11682402.793 22723790.277 10 0 59883 56700.00000 0 3052602.658 -10541551.323 23076812.092 10 0 59883 57600.00000 0 5716278.577 -9586258.324 22984069.636 10 0 59883 58500.00000 0 8405868.698 -8838569.875 22447208.341 10 0 59883 59400.00000 0 11052882.537 -8308565.402 21476411.827 10 0 59883 60300.00000 0 13588886.141 -7994042.678 20090223.354 10 0 59883 61200.00000 0 15948123.283 -7880728.836 18315210.651 10 0 59883 62100.00000 0 18070041.688 -7943009.668 16185478.569 10 0 59883 63000.00000 0 19901620.875 -8145148.310 13742036.568 10 0 59883 63900.00000 0 21399405.273 -8442944.023 11032030.825 10 0 59883 64800.00000 0 22531157.708 -8785763.185 8107853.413 10 0 59883 65700.00000 0 23277063.156 -9118858.452 5026143.777 10 0 59883 66600.00000 0 23630430.715 -9385879.200 1846700.368 10 0 59883 67500.00000 0 23597862.402 -9531467.352 -1368677.318 10 0 59883 68400.00000 0 23198879.566 -9503828.069 -4557393.994 10 0 59883 69300.00000 0 22465020.740 -9257164.959 -7657287.077 10 0 59883 70200.00000 0 21438447.492 -8753874.328 -10607853.362 10 0 59883 71100.00000 0 20170116.180 -7966402.673 -13351448.355 10 0 59883 72000.00000 0 18717592.646 -6878685.598 -15834432.794 10 0 59883 72900.00000 0 17142602.605 -5487104.078 -18008241.947 10 0 59883 73800.00000 0 15508422.235 -3800914.657 -19830354.763 10 0 59883 74700.00000 0 13877220.645 -1842132.977 -21265142.063 10 0 59883 75600.00000 0 12307467.998 355126.341 -22284575.815 10 0 59883 76500.00000 0 10851520.147 2745826.848 -22868784.575 10 0 59883 77400.00000 0 9553482.897 5275655.366 -23006443.723 10 0 59883 78300.00000 0 8447446.553 7883065.867 -22694992.804 10 0 59883 79200.00000 0 7556165.145 10501635.801 -21940676.130 10 0 59883 80100.00000 0 6890235.291 13062635.260 -20758406.609 10 0 59883 81000.00000 0 6447807.811 15497700.512 -19171456.575 10 0 59883 81900.00000 0 6214842.166 17741499.325 -17210982.964 10 0 59883 82800.00000 0 6165890.483 19734276.092 -14915397.632 10 0 59883 83700.00000 0 6265375.215 21424170.484 -12329596.693 10 0 59883 84600.00000 0 6469303.665 22769213.345 -9504065.477 10 0 59883 85500.00000 0 6727344.286 23738917.622 -6493878.159 10 0 59884 0.00000 0 6985174.690 24315399.709 -3357613.157 10 0 59884 900.00000 0 7187000.575 24493986.915 -156204.840 10 0 59884 1800.00000 0 7278137.683 24283287.664 3048241.048 10 0 59884 2700.00000 0 7207547.821 23704725.340 6193650.499 10 0 59884 3600.00000 0 6930221.792 22791557.083 9219175.458 10 0 59884 4500.00000 0 6409309.676 21587421.226 12066358.180 10 0 59884 5400.00000 0 5617909.862 20144475.709 14680244.025 10 0 59884 6300.00000 0 4540442.819 18521206.159 17010422.710 10 0 59884 7200.00000 0 3173553.092 16779995.238 19011979.685 10 0 59884 8100.00000 0 1526502.475 14984553.969 20646341.358 10 0 59884 9000.00000 0 -378961.940 13197320.597 21882000.010 10 0 59884 9900.00000 0 -2509259.795 11476933.485 22695106.297 10 0 59884 10800.00000 0 -4820123.732 9875880.910 23069919.622 10 0 59884 11700.00000 0 -7258194.254 8438423.331 22999108.802 10 0 59884 12600.00000 0 -9762999.439 7198872.607 22483897.781 10 0 59884 13500.00000 0 -12269240.352 6180298.225 21534053.405 10 0 59884 14400.00000 0 -14709290.429 5393713.545 20167714.630 10 0 59884 15300.00000 0 -17015807.997 4837775.845 18411064.975 10 0 59884 16200.00000 0 -19124355.924 4499013.205 16297852.514 10 0 59884 17100.00000 0 -20975921.394 4352569.857 13868764.295 10 0 59884 18000.00000 0 -22519231.801 4363440.302 11170664.843 10 0 59884 18900.00000 0 -23712770.330 4488142.019 8255711.077 10 0 59884 19800.00000 0 -24526406.232 4676757.904 5180358.674 10 0 59884 20700.00000 0 -24942569.985 4875263.473 2004277.682 10 0 59884 21600.00000 0 -24956922.034 5028041.023 -1210802.537 10 0 59884 22500.00000 0 -24578484.683 5080474.154 -4402296.816 10 0 59884 23400.00000 0 -23829229.288 4981511.690 -7507992.145 10 0 59884 24300.00000 0 -22743134.184 4686090.479 -10467275.075 10 0 59884 25200.00000 0 -21364751.560 4157311.860 -13222333.028 10 0 59884 26100.00000 0 -19747342.986 3368276.609 -15719304.026 10 0 59884 27000.00000 0 -17950662.156 2303497.528 -17909350.347 10 0 59884 27900.00000 0 -16038478.961 959826.833 -19749633.100 10 0 59884 28800.00000 0 -14075950.413 -653143.501 -21204166.800 10 0 59884 29700.00000 0 -12126950.655 -2513227.532 -22244535.831 10 0 59884 30600.00000 0 -10251473.929 -4586332.655 -22850457.723 10 0 59884 31500.00000 0 -8503221.191 -6827660.226 -23010181.704 10 0 59884 32400.00000 0 -6927472.710 -9183369.214 -22720714.640 10 0 59884 33300.00000 0 -5559336.362 -11592632.610 -21987870.335 10 0 59884 34200.00000 0 -4422444.843 -13989999.479 -20826141.973 10 0 59884 35100.00000 0 -3528155.305 -16307962.646 -19258401.279 10 0 59884 36000.00000 0 -2875283.137 -18479623.512 -17315431.601 10 0 59884 36900.00000 0 -2450378.549 -20441341.543 -15035305.506 10 0 59884 37800.00000 0 -2228531.329 -22135257.185 -12462620.695 10 0 59884 38700.00000 0 -2174666.676 -23511582.734 -9647610.632 10 0 59884 39600.00000 0 -2245274.391 -24530565.950 -6645148.882 10 0 59884 40500.00000 0 -2390495.572 -25164045.571 -3513667.890 10 0 59884 41400.00000 0 -2556476.398 -25396535.506 -314014.337 10 0 59884 42300.00000 0 -2687887.907 -25225794.553 2891735.739 10 0 59884 43200.00000 0 -2730504.374 -24662860.356 6041478.705 10 0 59884 44100.00000 0 -2633731.227 -23731548.633 9074278.732 10 0 59884 45000.00000 0 -2352976.264 -22467440.902 11931534.139 10 0 59884 45900.00000 0 -1851765.192 -20916404.766 14558093.201 10 0 59884 46800.00000 0 -1103513.636 -19132709.662 16903299.347 10 0 59884 47700.00000 0 -92882.429 -17176817.060 18921947.346 10 0 59884 48600.00000 0 1183339.634 -15112936.698 20575134.097 10 0 59884 49500.00000 0 2715862.006 -13006449.378 21830989.761 10 0 59884 50400.00000 0 4483043.195 -10921301.698 22665277.034 10 0 59884 51300.00000 0 6451560.717 -8917478.751 23061848.710 10 0 59884 52200.00000 0 8577573.888 -7048657.325 23012955.886 10 0 59884 53100.00000 0 10808333.251 -5360134.846 22519401.387 10 0 59884 54000.00000 0 13084172.550 -3887118.113 21590535.353 10 0 59884 54900.00000 0 15340803.509 -2653441.554 20244092.229 10 0 59884 55800.00000 0 17511821.002 -1670767.656 18505870.823 10 0 59884 56700.00000 0 19531317.214 -938302.848 16409261.628 10 0 59884 57600.00000 0 21336498.155 -443041.331 13994628.160 10 0 59884 58500.00000 0 22870194.808 -160527.818 11308551.822 10 0 59884 59400.00000 0 24083164.592 -56108.636 8402952.524 10 0 59884 60300.00000 0 24936086.482 -86620.059 5334099.944 10 0 59884 61200.00000 0 25401164.867 -202444.049 2161533.117 10 0 59884 62100.00000 0 25463272.876 -349845.405 -1053091.666 10 0 59884 63000.00000 0 25120584.719 -473491.625 -4247202.541 10 0 59884 63900.00000 0 24384667.849 -519048.178 -7358539.376 10 0 59884 64800.00000 0 23280028.636 -435737.803 -10326381.798 10 0 59884 65700.00000 0 21843128.690 -178753.191 -13092752.348 10 0 59884 66600.00000 0 20120911.877 288581.850 -15603569.337 10 0 59884 67500.00000 0 18168903.459 992997.283 -17809724.782 10 0 59884 68400.00000 0 16048961.431 1949887.664 -19668064.393 10 0 59884 69300.00000 0 13826775.475 3162410.428 -21142248.501 10 0 59884 70200.00000 0 11569219.903 4621112.067 -22203475.695 10 0 59884 71100.00000 0 9341673.236 6304099.789 -22831053.947 10 0 59884 72000.00000 0 7205418.412 8177752.405 -23012807.433 10 0 59884 72900.00000 0 5215233.855 10197940.944 -22745311.065 10 0 59884 73800.00000 0 3417276.968 12311707.443 -22033948.453 10 0 59884 74700.00000 0 1847348.844 14459330.567 -20892792.934 10 0 59884 75600.00000 0 529612.021 16576690.375 -19344315.061 10 0 59884 76500.00000 0 -524186.566 18597831.829 -17418923.567 10 0 59884 77400.00000 0 -1314957.132 20457618.448 -15154350.287 10 0 59884 78300.00000 0 -1855965.924 22094364.061 -12594892.618 10 0 59884 79200.00000 0 -2172007.370 23452331.999 -9790529.879 10 0 59884 80100.00000 0 -2298087.722 24483997.121 -6795932.397 10 0 59884 81000.00000 0 -2277678.930 25151976.644 -3669383.983 10 0 59884 81900.00000 0 -2160619.243 25430550.228 -471639.898 10 0 59884 82800.00000 0 -2000751.353 25306707.382 2735256.575 10 0 59884 83700.00000 0 -1853399.346 24780680.509 5889175.568 10 0 59884 84600.00000 0 -1772791.695 23865943.483 8929096.848 10 0 59884 85500.00000 0 -1809538.961 22588677.968 11796278.060 10 0 59885 0.00000 0 -2008271.926 20986731.731 14435373.254 10 0 59885 900.00000 0 -2405538.591 19108112.720 16795482.911 10 0 59885 1800.00000 0 -3028046.862 17009084.521 18831113.457 10 0 59885 2700.00000 0 -3891325.783 14751939.339 20503034.571 10 0 59885 3600.00000 0 -4998860.241 12402542.231 21779016.251 10 0 59885 4500.00000 0 -6341734.973 10027746.140 22634434.822 10 0 59885 5400.00000 0 -7898803.004 7692782.963 23052737.665 10 0 59885 6300.00000 0 -9637372.530 5458736.375 23025758.901 10 0 59885 7200.00000 0 -11514385.357 3380198.752 22553880.502 10 0 59885 8100.00000 0 -13478040.233 1503207.090 21646035.649 10 0 59885 9000.00000 0 -15469796.351 -136458.268 20319553.476 10 0 59885 9900.00000 0 -17426676.551 -1514542.589 18599846.736 10 0 59885 10800.00000 0 -19283777.190 -2619101.118 16519946.474 10 0 59885 11700.00000 0 -20976882.501 -3450766.023 14119890.313 10 0 59885 12600.00000 0 -22445076.043 -4022483.913 11445973.783 10 0 59885 13500.00000 0 -23633241.034 -4358733.771 8549876.691 10 0 59885 14400.00000 0 -24494344.858 -4494256.713 5487679.409 10 0 59885 15300.00000 0 -24991410.951 -4472349.654 2318786.514 10 0 59885 16200.00000 0 -25099093.483 -4342793.836 -895222.256 10 0 59885 17100.00000 0 -24804786.235 -4159505.230 -4091791.784 10 0 59885 18000.00000 0 -24109216.213 -3978006.414 -7208618.195 10 0 59885 18900.00000 0 -23026494.272 -3852827.988 -10184877.415 10 0 59885 19800.00000 0 -21583618.055 -3834951.316 -12962430.161 10 0 59885 20700.00000 0 -19819446.240 -3969403.304 -15486977.820 10 0 59885 21600.00000 0 -17783185.960 -4293107.821 -17709144.619 10 0 59885 22500.00000 0 -15532456.513 -4833087.649 -19585462.910 10 0 59885 23400.00000 0 -13131011.004 -5605095.792 -21079240.394 10 0 59885 24300.00000 0 -10646212.423 -6612736.456 -22161290.869 10 0 59885 25200.00000 0 -8146371.248 -7847114.728 -22810513.162 10 0 59885 26100.00000 0 -5698057.649 -9287030.960 -23014306.255 10 0 59885 27000.00000 0 -3363502.080 -10899712.245 -22768812.436 10 0 59885 27900.00000 0 -1198193.957 -12642050.089 -22078984.010 10 0 59885 28800.00000 0 751220.670 -14462291.504 -20958472.988 10 0 59885 29700.00000 0 2448654.978 -16302111.367 -19429346.987 10 0 59885 30600.00000 0 3869840.116 -18098977.676 -17521638.152 10 0 59885 31500.00000 0 5003076.070 -19788708.955 -15272735.439 10 0 59885 32400.00000 0 5849445.890 -21308115.304 -12726633.702 10 0 59885 33300.00000 0 6422487.495 -22597611.390 -9933055.795 10 0 59885 34200.00000 0 6747340.264 -23603691.329 -6946466.444 10 0 59885 35100.00000 0 6859405.860 -24281161.815 -3824998.443 10 0 59885 36000.00000 0 6802582.909 -24595040.612 -629313.244 10 0 59885 36900.00000 0 6627152.693 -24522042.053 2578580.989 10 0 59885 37800.00000 0 6387407.093 -24051589.011 5736530.492 10 0 59885 38700.00000 0 6139120.140 -23186310.867 8783432.914 10 0 59885 39600.00000 0 5936970.255 -21942008.577 11660407.449 10 0 59885 40500.00000 0 5832021.533 -20347090.047 14311916.496 10 0 59885 41400.00000 0 5869369.260 -18441500.622 16686818.624 10 0 59885 42300.00000 0 6086047.346 -16275194.018 18739334.240 10 0 59885 43200.00000 0 6509284.157 -13906207.285 20429907.407 10 0 59885 44100.00000 0 7155178.562 -11398418.972 21725949.316 10 0 59885 45000.00000 0 8027850.701 -8819082.136 22602450.997 10 0 59885 45900.00000 0 9119102.642 -6236232.336 23042455.202 10 0 59885 46800.00000 0 10408603.520 -3716075.541 23037379.564 10 0 59885 47700.00000 0 11864592.541 -1320461.562 22587185.400 10 0 59885 48600.00000 0 13445072.450 895454.870 21700388.868 10 0 59885 49500.00000 0 15099446.153 2885270.651 20393913.468 10 0 59885 50400.00000 0 16770531.029 4613024.710 18692785.329 10 0 59885 51300.00000 0 18396869.731 6054453.018 16629675.228 10 0 59885 52200.00000 0 19915243.652 7197756.243 14244293.832 10 0 59885 53100.00000 0 21263285.996 8043847.508 11582649.428 10 0 59885 54000.00000 0 22382086.442 8606068.969 8696180.085 10 0 59885 54900.00000 0 23218678.602 8909387.811 5640774.895 10 0 59885 55800.00000 0 23728305.266 8989103.994 2475701.723 10 0 59885 56700.00000 0 23876364.761 8889122.985 -737538.794 10 0 59885 57600.00000 0 23639954.250 8659865.562 -3936411.041 10 0 59885 58500.00000 0 23008942.219 8355902.799 -7058570.284 10 0 59885 59400.00000 0 21986521.998 8033416.828 -10043091.668 10 0 59885 60300.00000 0 20589220.037 7747596.184 -12831676.935 10 0 59885 61200.00000 0 18846356.119 7550077.893 -15369813.263 10 0 59885 62100.00000 0 16798976.265 7486547.124 -17607859.612 10 0 59885 63000.00000 0 14498302.036 7594598.642 -19502037.288 10 0 59885 63900.00000 0 12003761.015 7901953.267 -21015303.444 10 0 59885 64800.00000 0 9380681.438 8425107.171 -22118088.959 10 0 59885 65700.00000 0 6697748.475 9168473.069 -22788885.150 10 0 59885 66600.00000 0 4024329.966 10124050.925 -23014667.193 10 0 59885 67500.00000 0 1427784.759 11271642.723 -22791145.848 10 0 59885 68400.00000 0 -1029132.728 12579602.287 -22122842.858 10 0 59885 69300.00000 0 -3290662.523 14006087.876 -21022989.257 10 0 59885 70200.00000 0 -5310123.820 15500763.729 -19513249.637 10 0 59885 71100.00000 0 -7051608.012 17006877.520 -17623279.013 10 0 59885 72000.00000 0 -8491210.692 18463624.719 -15390122.480 10 0 59885 72900.00000 0 -9617753.372 19808698.944 -12857470.934 10 0 59885 73800.00000 0 -10432967.619 20980919.830 -10074788.969 10 0 59885 74700.00000 0 -10951137.148 21922827.062 -7096333.561 10 0 59885 75600.00000 0 -11198216.535 22583131.276 -3980084.048 10 0 59885 76500.00000 0 -11210467.019 22918919.070 -786605.385 10 0 59885 77400.00000 0 -11032669.950 22897520.339 2422132.277 10 0 59885 78300.00000 0 -10715995.675 22497960.836 5583954.320 10 0 59885 79200.00000 0 -10315619.483 21711940.614 8637679.417 10 0 59885 80100.00000 0 -9888186.020 20544299.084 11524291.494 10 0 59885 81000.00000 0 -9489229.131 19012948.861 14188064.244 10 0 59885 81900.00000 0 -9170655.118 17148282.403 16577617.896 10 0 59885 82800.00000 0 -8978394.082 14992077.001 18646889.551 10 0 59885 83700.00000 0 -8950316.458 12595943.821 20356000.429 10 0 59885 84600.00000 0 -9114500.578 10019384.790 21672005.437 10 0 59885 85500.00000 0 -9487922.410 7327536.703 22569512.523 10 0 59886 0.00000 0 -10075621.345 4588694.283 23031161.628 10 0 59886 900.00000 0 -10870376.940 1871710.830 23047955.385 10 0 59886 1800.00000 0 -11852909.741 -756614.906 22619435.322 10 0 59886 2700.00000 0 -12992600.092 -3234065.127 21753700.951 10 0 59886 3600.00000 0 -14248696.085 -5505336.829 20467269.951 10 0 59886 4500.00000 0 -15571962.916 -7524089.757 18784781.057 10 0 59886 5400.00000 0 -16906707.353 -9254624.619 16738543.437 10 0 59886 6300.00000 0 -18193095.303 -10673122.420 14367938.915 10 0 59886 7200.00000 0 -19369667.733 -11768393.119 11718686.176 10 0 59886 8100.00000 0 -20375951.136 -12542101.634 8841978.772 10 0 59886 9000.00000 0 -21155053.837 -13008460.561 5793511.426 10 0 59886 9900.00000 0 -21656138.850 -13193401.015 2632411.954 10 0 59886 10800.00000 0 -21836668.178 -13133255.092 -579901.582 10 0 59886 11700.00000 0 -21664322.039 -12873004.367 -3780916.636 10 0 59886 12600.00000 0 -21118509.498 -12464167.732 -6908251.185 10 0 59886 13500.00000 0 -20191403.751 -11962417.910 -9900883.138 10 0 59886 14400.00000 0 -18888455.249 -11425028.238 -12700358.686 10 0 59886 15300.00000 0 -17228358.093 -10908259.251 -15251954.041 10 0 59886 16200.00000 0 -15242468.639 -10464797.719 -17505765.853 10 0 59886 17100.00000 0 -12973698.901 -10141358.887 -19417706.959 10 0 59886 18000.00000 0 -10474930.304 -9976555.866 -20950386.067 10 0 59886 18900.00000 0 -7807014.024 -9999128.628 -22073852.668 10 0 59886 19800.00000 0 -5036442.141 -10226609.413 -22766191.507 10 0 59886 20700.00000 0 -2232788.057 -10664482.335 -23013954.274 10 0 59886 21600.00000 0 533975.648 -11305873.414 -22812419.948 10 0 59886 22500.00000 0 3196168.703 -12131784.178 -22165678.956 10 0 59886 23400.00000 0 5690990.567 -13111858.348 -21086540.189 10 0 59886 24300.00000 0 7962895.380 -14205648.138 -19596263.698 10 0 59886 25200.00000 0 9965655.490 -15364325.247 -17724125.589 10 0 59886 26100.00000 0 11664028.266 -16532762.622 -15506825.074 10 0 59886 27000.00000 0 13034958.316 -17651897.543 -12987746.876 10 0 59886 27900.00000 0 14068267.275 -18661274.825 -10216094.920 10 0 59886 28800.00000 0 14766805.255 -19501661.783 -7245915.866 10 0 59886 29700.00000 0 15146061.036 -20117624.046 -4135032.891 10 0 59886 30600.00000 0 15233250.883 -20459953.585 -943911.646 10 0 59886 31500.00000 0 15065927.546 -20487847.142 2265518.573 10 0 59886 32400.00000 0 14690170.928 -20170744.330 5431065.118 10 0 59886 33300.00000 0 14158438.781 -19489749.478 8491470.419 10 0 59886 34200.00000 0 13527169.365 -18438579.017 11387585.723 10 0 59886 35100.00000 0 12854237.530 -17023996.220 14063498.404 10 0 59886 36000.00000 0 12196371.020 -15265716.355 16467592.498 10 0 59886 36900.00000 0 11606634.579 -13195787.061 18553523.671 10 0 59886 37800.00000 0 11132086.048 -10857470.004 20281091.874 10 0 59886 38700.00000 0 10811700.974 -8303669.840 21616996.990 10 0 59886 39600.00000 0 10674650.931 -5594974.588 22535464.822 10 0 59886 40500.00000 0 10739006.140 -2797386.784 23018733.154 10 0 59886 41400.00000 0 11010915.672 20163.049 23057389.753 10 0 59886 42300.00000 0 11484299.208 2788420.357 22650556.466 10 0 59886 43200.00000 0 12141063.741 5440423.093 21805915.871 10 0 59886 44100.00000 0 12951837.414 7914025.230 20539579.266 10 0 59886 45000.00000 0 13877191.684 10154224.952 18875797.188 10 0 59886 45900.00000 0 14869303.036 12115202.702 16846516.153 10 0 59886 46800.00000 0 15873987.143 13761985.432 14490787.865 10 0 59886 47700.00000 0 16833022.553 15071667.897 11854039.897 10 0 59886 48600.00000 0 17686668.286 16034139.615 8987219.527 10 0 59886 49500.00000 0 18376270.744 16652285.995 5945825.113 10 0 59886 50400.00000 0 18846850.565 16941653.714 2788842.193 10 0 59886 51300.00000 0 19049559.821 16929592.872 -422396.173 10 0 59886 52200.00000 0 18943904.370 16653910.603 -3625403.084 10 0 59886 53100.00000 0 18499635.262 16161091.869 -6757761.877 10 0 59886 54000.00000 0 17698226.403 15504162.155 -9758355.857 10 0 59886 54900.00000 0 16533872.870 14740282.614 -12568578.232 10 0 59886 55800.00000 0 15013964.571 13928180.329 -15133496.674 10 0 59886 56700.00000 0 13159012.323 13125523.954 -17402947.784 10 0 59886 57600.00000 0 11002027.067 12386357.780 -19332538.008 10 0 59886 58500.00000 0 8587376.699 11758704.949 -20884529.501 10 0 59886 59400.00000 0 5969167.594 11282443.392 -22028592.096 10 0 59886 60300.00000 0 3209218.545 10987546.124 -22742405.500 10 0 59886 61200.00000 0 374712.492 10892761.684 -23012099.252 10 0 59886 62100.00000 0 -2464374.814 11004791.227 -22832521.624 10 0 59886 63000.00000 0 -5237960.701 11317997.093 -22207332.483 10 0 59886 63900.00000 0 -7878542.686 11814654.537 -21148918.941 10 0 59886 64800.00000 0 -10323773.974 12465734.796 -19678136.469 10 0 59886 65700.00000 0 -12518819.578 13232184.762 -17823881.775 10 0 59886 66600.00000 0 -14418395.092 14066647.261 -15622507.300 10 0 59886 67500.00000 0 -15988404.136 14915547.298 -13117090.312 10 0 59886 68400.00000 0 -17207107.955 15721454.272 -10356572.482 10 0 59886 69300.00000 0 -18065780.735 16425618.781 -7394788.291 10 0 59886 70200.00000 0 -18568826.297 16970575.818 -4289402.677 10 0 59886 71100.00000 0 -18733354.596 17302703.852 -1100779.726 10 0 59886 72000.00000 0 -18588239.126 17374631.840 2109194.563 10 0 59886 72900.00000 0 -18172697.951 17147393.257 5278312.109 10 0 59886 73800.00000 0 -17534460.570 16592237.422 8345241.849 10 0 59886 74700.00000 0 -16727599.555 15692023.245 11250705.221 10 0 59886 75600.00000 0 -15810119.156 14442138.278 13938606.237 10 0 59886 76500.00000 0 -14841402.364 12850905.786 16357095.733 10 0 59886 77400.00000 0 -13879622.971 10939463.754 18459550.887 10 0 59886 78300.00000 0 -12979229.869 8741121.270 20205453.228 10 0 59886 79200.00000 0 -12188607.222 6300218.777 21561150.255 10 0 59886 80100.00000 0 -11548006.524 3670538.614 22500488.003 10 0 59886 81000.00000 0 -11087835.104 913330.126 23005304.115 10 0 59886 81900.00000 0 -10827371.101 -1904971.201 23065773.214 10 0 59886 82800.00000 0 -10773957.614 -4715238.741 22680598.590 10 0 59886 83700.00000 0 -10922709.417 -7448263.602 21857046.586 10 0 59886 84600.00000 0 -11256745.005 -10037372.269 20610822.303 10 0 59886 85500.00000 0 -11747935.500 -12420947.087 18965787.730 99